GEFSCGP_500_meanwind_012.txt.gz
Wind_Speed
27 27 28 29 29 29 29 29 30 34 36 36 40 42 42 41 42 43 43 42 41 39 37 36 37 38 38 37 36 36 37 38 39 40 41 42 43 44 44 44 42 39 35 32
27 28 28 28 28 28 28 29 30 33 32 33 36 38 39 39 41 42 42 42 41 40 38 38 38 39 39 38 36 36 38 40 42 43 44 45 45 43 43 42 42 42 39 35
29 30 28 27 28 28 28 29 30 31 31 31 33 34 35 36 37 38 39 39 39 38 37 36 36 36 37 37 38 39 40 42 44 45 46 48 48 48 45 44 42 41 41 39
30 31 30 30 30 29 29 31 31 31 31 31 34 33 34 35 35 36 36 36 36 36 36 36 35 36 36 38 40 41 43 44 46 48 49 50 51 51 50 47 43 40 40 40
28 30 31 32 33 33 34 34 34 34 34 34 35 35 32 38 36 37 36 35 35 35 36 36 37 38 39 41 42 44 46 47 49 51 52 53 54 55 56 54 52 48 44 43
24 28 31 34 35 35 37 37 39 40 40 41 38 39 37 39 41 39 38 37 37 37 37 38 39 41 42 43 45 47 48 50 52 53 55 56 57 58 58 58 56 54 51 48
15 18 22 26 30 34 37 39 40 42 44 43 41 44 42 47 44 42 42 42 42 41 41 41 42 42 43 45 47 48 50 51 52 54 56 57 58 58 56 54 52 51 49 48
15 17 19 21 23 27 30 34 38 41 39 36 44 46 46 47 46 46 46 47 47 46 46 45 44 44 44 45 46 48 49 49 50 52 53 53 53 52 49 46 43 41 40 40
21 23 23 24 24 25 27 30 33 38 40 40 41 43 43 41 43 44 45 46 46 46 45 44 43 43 43 43 44 45 46 46 46 46 45 45 44 42 39 37 34 32 31 31
26 28 28 27 26 26 25 26 27 31 35 38 38 39 39 37 38 39 40 41 42 42 40 39 39 39 39 39 40 41 41 41 40 39 38 37 36 33 30 29 28 27 27 28
28 29 30 29 29 29 28 27 28 30 32 32 33 34 35 32 33 34 35 36 38 39 39 38 37 36 35 36 36 36 36 35 34 33 33 32 31 29 27 26 26 26 26 26
26 29 29 31 33 33 34 33 33 33 32 32 32 33 31 30 30 30 30 32 35 36 37 37 37 35 35 35 35 34 33 32 32 31 31 30 28 27 26 26 26 26 26 26
21 24 26 27 31 33 36 37 37 37 37 35 32 33 33 31 31 30 30 30 32 33 34 34 34 34 34 34 34 33 32 32 32 32 31 30 28 27 26 26 26 27 28 29
18 19 22 26 30 34 36 36 36 36 35 34 32 33 34 32 32 31 30 30 30 31 32 32 32 32 32 32 32 31 31 32 32 33 33 32 31 30 29 28 28 28 29 30
20 18 20 24 28 32 34 33 33 33 32 32 30 31 33 32 32 31 31 31 30 31 31 30 29 29 29 29 29 29 30 31 32 33 34 34 35 35 34 33 32 32 32 33
23 20 19 19 21 22 21 23 25 28 29 30 30 30 29 30 30 30 30 31 31 31 31 29 29 29 29 30 30 31 33 34 35 36 36 37 38 39 40 40 39 38 38 39
23 21 18 17 19 19 17 17 18 20 22 24 26 26 25 25 27 27 28 28 29 29 29 29 28 27 28 29 30 32 33 34 35 36 38 39 41 42 43 44 44 44 45 45
24 22 19 16 16 15 15 14 12 12 14 15 17 17 18 19 20 22 24 25 27 29 29 29 28 27 28 30 31 32 32 33 35 36 38 40 42 44 45 46 47 48 49 49
24 24 20 16 13 13 13 11 9 9 10 11 12 13 13 15 17 18 19 19 21 22 25 27 26 26 27 28 28 28 28 29 31 33 35 37 40 42 43 45 47 48 49 49
22 23 22 17 13 10 11 9 7 7 7 8 9 9 10 11 13 14 16 16 16 17 18 20 22 23 23 23 24 25 26 28 29 31 32 34 36 38 39 40 41 42 42 42
20 21 21 18 14 11 10 7 6 6 7 7 7 7 8 9 11 12 14 15 16 16 16 17 18 19 19 20 21 23 24 25 25 26 27 28 29 30 30 30 31 31 31 31
17 17 18 19 17 14 11 6 4 4 5 6 7 8 8 9 10 11 13 14 15 16 16 17 17 18 19 19 20 21 21 21 21 21 21 21 20 20 19 19 19 20 22 23
15 14 14 15 15 15 13 8 5 2 3 5 6 7 8 9 10 10 11 12 13 14 16 18 19 21 21 21 21 21 20 18 18 18 18 18 18 18 18 18 18 18 19 20
15 13 12 11 11 12 12 10 8 5 3 3 4 5 7 7 8 8 9 10 11 13 16 18 20 21 21 21 20 19 18 17 16 16 17 17 18 19 20 20 21 21 22 22
17 15 13 11 9 9 8 8 7 6 5 4 3 2 1 2 2 3 4 5 6 8 10 12 14 16 17 17 18 18 18 17 17 17 17 18 19 20 21 22 23 24 24 25
19 16 15 13 11 9 7 5 4 3 4 4 4 5 5 4 3 3 3 3 4 5 6 7 9 10 11 13 15 16 17 18 19 19 19 20 21 22 24 25 26 27 28 29

GEFSCGP_500_meanwind_018.txt.gz
Wind_Speed
25 23 22 20 20 22 22 24 22 19 18 26 31 32 31 31 35 37 40 42 40 41 41 40 41 41 40 40 40 40 40 40 40 39 39 39 39 38 38 39 40 42 44 44
26 24 24 26 29 28 28 29 27 22 21 29 36 36 33 34 36 41 44 45 43 40 39 41 43 44 45 44 44 43 43 43 43 43 43 42 41 40 40 40 42 44 45 46
27 24 29 32 32 30 29 28 28 28 24 27 37 40 37 36 40 46 47 46 46 45 44 44 45 46 47 47 47 46 45 45 45 45 45 44 44 43 42 42 43 45 48 48
29 29 34 33 30 29 28 24 27 29 31 30 30 32 32 32 37 43 45 45 46 46 45 44 45 46 47 48 48 47 46 45 45 45 45 45 45 45 45 46 47 48 50 50
23 28 31 30 28 28 28 29 32 32 34 36 35 34 32 27 33 39 41 40 40 42 43 43 43 44 45 46 47 46 46 45 45 45 45 46 47 47 49 50 50 51 52 52
14 19 21 23 27 32 33 34 37 37 37 39 37 36 37 31 35 42 44 41 37 37 39 41 42 42 43 44 45 45 45 45 45 45 46 47 48 50 51 52 53 54 54 53
7 10 11 13 17 22 27 32 36 38 39 41 34 35 36 37 43 47 48 45 41 38 37 38 40 41 42 43 44 45 45 46 47 47 48 49 50 52 53 54 55 55 54 52
10 11 13 14 16 18 20 24 29 34 35 35 33 36 40 42 46 49 51 51 50 49 47 45 44 43 44 44 45 47 48 49 49 50 51 52 53 54 54 54 54 53 51 49
16 17 19 20 22 24 26 28 30 34 36 37 36 38 42 43 45 48 52 53 53 52 51 51 50 49 48 48 49 49 50 51 52 53 53 54 54 54 54 53 51 49 47 44
19 21 20 23 26 27 29 31 33 36 39 40 39 35 40 44 46 46 48 52 53 52 52 52 51 50 49 49 49 50 51 52 52 52 51 51 51 50 49 48 46 44 42 40
15 15 15 19 24 26 29 30 31 35 38 40 40 38 38 40 43 45 43 40 44 49 50 48 47 46 46 46 46 46 46 46 46 46 45 45 44 44 42 41 40 39 37 36
13 13 14 15 19 23 26 29 33 35 36 37 40 41 40 41 43 45 46 42 38 38 40 40 40 41 42 42 42 42 42 42 42 41 41 40 40 39 37 36 35 35 34 33
13 14 15 15 19 23 27 30 34 39 41 40 40 40 39 40 41 43 45 44 41 37 35 35 36 37 38 38 39 40 40 40 40 39 39 38 37 36 35 34 34 33 33 32
14 16 17 19 19 22 26 30 35 39 42 43 40 41 40 39 39 39 38 39 37 36 35 34 33 34 35 36 37 37 38 37 37 37 36 36 35 35 34 34 34 34 34 33
15 17 19 21 22 23 25 25 27 32 36 39 38 37 37 37 37 37 36 35 34 33 33 32 33 34 35 35 36 36 36 36 35 34 33 33 33 33 34 34 35 35 36 36
18 18 19 21 24 25 25 24 25 27 30 32 34 34 34 34 34 35 35 35 33 31 30 31 32 33 35 35 35 35 35 34 33 32 31 32 32 33 34 35 36 37 38 38
20 20 20 22 24 25 22 26 26 25 26 27 28 28 28 30 30 31 31 30 29 27 27 28 30 30 30 32 33 34 35 34 32 32 32 32 33 34 35 36 37 38 38 39
19 19 20 21 23 23 25 24 24 23 22 21 21 20 20 21 21 21 22 21 21 22 23 25 26 27 28 29 30 31 31 31 30 30 31 31 33 34 35 36 37 38 39 40
19 19 20 20 21 22 23 24 22 19 18 18 17 15 15 15 15 15 16 16 16 17 18 19 20 22 22 24 25 26 26 27 27 28 29 30 31 32 33 34 35 36 37 39
19 19 19 19 20 20 22 22 20 19 16 16 15 13 13 13 14 13 14 14 14 14 14 15 15 16 17 18 20 22 23 24 25 26 26 27 28 29 31 32 33 34 35 35
24 21 19 19 19 19 20 20 20 18 17 16 15 14 13 13 13 13 13 13 14 14 13 13 13 14 15 16 17 19 20 21 21 22 24 25 26 28 29 30 30 30 30 30
25 23 21 20 20 20 19 19 19 17 16 16 14 14 13 13 13 13 13 14 14 13 13 13 13 14 15 16 17 17 18 19 20 22 23 24 25 25 26 26 26 26 26 25
27 25 23 21 22 21 19 18 18 17 15 14 14 13 13 12 11 11 11 11 12 12 11 11 11 11 12 13 15 17 18 20 21 21 22 22 22 23 23 23 23 24 24 24
29 29 26 22 21 22 20 19 17 16 14 13 12 11 10 9 8 8 7 6 6 6 6 7 7 8 9 10 12 13 15 17 17 18 19 19 20 21 21 21 22 22 23 24
28 30 29 25 22 22 21 20 18 16 15 13 12 10 8 8 7 6 5 5 5 5 5 5 5 6 7 8 9 9 11 12 14 15 16 17 18 19 20 21 22 23 25 26
24 28 29 27 25 23 21 21 20 18 17 16 15 13 11 9 8 6 6 6 6 5 5 5 5 6 6 7 7 8 9 10 11 12 13 15 16 18 19 21 22 23 25 27

GEFSCGP_500_meanwind_024.txt.gz
Wind_Speed
20 19 19 18 20 22 24 26 27 25 24 27 30 30 26 26 31 35 38 39 40 40 41 41 39 39 40 39 37 37 37 37 37 36 35 35 35 36 36 36 36 36 35 35
22 23 23 23 24 24 25 26 27 25 23 25 26 25 25 27 31 34 37 39 40 41 41 41 41 38 37 35 36 37 38 39 38 38 38 38 38 38 39 40 40 38 37 36
26 26 27 27 28 28 27 28 28 28 26 27 27 26 26 28 32 35 37 41 43 43 43 44 43 42 42 40 39 39 40 41 40 40 40 40 40 40 41 41 40 39 38 37
23 26 28 28 29 29 30 30 31 30 29 30 31 31 30 32 36 39 42 44 45 46 46 44 43 42 42 41 41 40 41 42 41 41 41 40 40 40 40 40 40 39 39 39
19 22 25 27 27 29 31 32 33 33 33 33 34 38 37 38 40 42 45 46 46 46 45 43 42 41 41 41 41 40 40 41 40 40 41 40 40 39 38 38 38 38 39 39
10 14 17 19 21 24 27 28 30 32 33 34 34 40 43 42 44 45 47 47 47 46 45 44 43 43 43 42 40 38 38 38 38 38 38 38 38 37 37 37 37 38 39 41
6 8 10 12 14 16 19 21 22 25 28 31 30 36 42 43 45 47 49 49 49 49 49 48 47 46 45 43 40 39 38 37 37 37 37 37 37 37 38 38 39 40 42 43
7 9 11 12 14 15 17 19 22 25 25 26 27 31 34 37 41 44 47 49 50 50 50 52 52 51 50 48 45 43 42 41 40 40 40 40 40 40 40 41 42 43 44 45
8 9 11 13 15 17 18 20 22 26 27 28 27 28 32 35 38 41 44 46 48 49 50 52 54 54 53 51 50 49 47 46 45 45 45 45 44 44 44 44 45 45 46 46
9 9 10 12 15 16 18 18 20 24 28 30 31 31 32 35 38 41 43 45 47 50 51 51 52 52 52 51 52 51 49 48 47 47 47 46 45 45 45 46 46 45 44 43
9 10 9 11 14 15 16 18 19 22 26 31 35 35 35 37 40 42 44 45 45 46 48 49 49 48 48 45 44 45 45 44 44 44 44 44 43 43 43 43 42 41 39 38
13 13 13 14 16 17 17 19 21 24 27 30 35 38 36 37 38 41 44 45 46 45 43 42 41 40 40 39 36 36 38 39 39 38 38 38 39 39 39 38 37 36 36 35
17 17 17 18 19 19 20 21 23 26 28 30 33 34 34 34 35 37 40 40 41 40 37 34 33 33 32 31 30 31 32 33 34 34 34 34 34 35 35 34 34 34 34 34
19 19 20 20 22 23 23 24 26 28 29 31 32 32 31 33 33 34 34 34 33 32 31 30 29 28 25 25 27 28 30 31 31 31 31 31 32 32 32 31 32 33 33 33
22 22 21 22 24 24 24 25 27 28 29 30 30 30 29 30 30 30 28 26 24 23 24 24 23 23 23 24 25 27 28 29 30 30 30 31 31 31 30 30 31 31 31 31
28 27 26 25 26 27 25 26 26 27 27 27 28 27 28 27 27 24 21 19 17 16 17 18 18 19 20 23 24 25 26 27 29 30 30 30 30 29 29 29 29 30 30 30
33 32 30 29 29 28 27 26 25 25 25 25 25 25 25 24 23 22 19 17 15 14 14 15 16 18 20 22 23 24 25 26 27 28 28 28 28 28 28 29 29 29 29 30
33 34 35 34 32 30 28 26 24 24 23 23 23 23 22 21 21 20 18 15 14 13 13 14 16 17 19 21 22 23 23 24 24 24 25 26 26 26 27 27 27 27 27 27
29 32 33 35 35 32 28 26 24 23 21 22 22 21 20 19 19 18 17 15 14 13 13 13 14 15 16 16 17 19 20 21 21 21 22 22 22 21 21 21 22 22 24 25
26 27 29 31 33 33 28 26 23 23 21 21 20 19 19 18 18 18 16 15 14 14 14 14 13 13 13 14 15 15 16 17 18 19 19 19 18 18 18 19 19 21 22 22
25 26 27 28 31 32 30 29 26 24 22 21 20 19 18 17 17 17 16 15 14 13 13 13 12 12 12 11 12 12 13 14 14 15 15 15 15 15 16 16 17 18 19 20
25 26 26 26 29 29 30 31 28 25 23 21 20 19 17 16 16 15 15 14 13 12 11 11 10 10 10 10 10 11 11 12 11 12 12 12 12 13 14 14 15 16 16 17
25 25 25 26 27 29 31 32 31 28 25 23 22 20 17 16 15 14 13 12 11 10 10 9 8 8 7 8 8 8 8 9 9 10 10 10 11 11 11 12 13 13 14 15
24 25 25 25 26 29 31 33 32 29 26 24 23 22 19 17 15 14 12 11 10 9 8 8 7 6 6 6 6 6 6 7 7 8 8 8 8 8 9 10 11 12 13 15
24 25 25 24 24 26 27 29 30 30 26 23 23 23 22 19 17 16 15 13 11 10 9 8 8 7 6 6 6 6 6 6 6 6 7 7 7 8 9 10 11 12 14 15
26 26 25 23 23 23 22 24 26 27 26 25 23 23 24 22 20 19 18 17 15 14 12 11 10 10 9 8 8 7 7 7 7 7 8 8 9 9 10 11 12 14 15 16

GEFSCGP_500_meanwind_030.txt.gz
Wind_Speed
17 18 20 22 23 26 28 30 32 34 38 41 42 43 42 41 41 41 41 40 39 39 38 39 38 37 36 36 35 35 35 36 37 38 38 38 39 39 39 38 37 36 34 31
20 22 21 21 22 22 24 25 26 28 31 34 35 35 36 36 37 37 38 38 38 37 38 38 38 36 37 37 36 35 37 38 38 38 39 41 42 42 42 41 40 39 36 33
23 23 23 23 24 24 26 26 26 27 27 29 30 30 32 33 33 33 34 34 35 35 36 38 38 38 38 37 37 38 39 39 40 41 42 43 43 43 43 42 41 40 38 35
23 24 24 25 26 26 27 28 29 28 28 29 30 32 31 32 33 33 33 34 36 37 38 39 40 39 39 39 39 41 41 42 41 41 42 43 43 43 42 41 38 38 35 33
21 23 24 25 26 27 28 29 30 30 30 30 31 33 34 33 35 36 37 37 39 40 42 42 43 44 44 44 45 45 45 44 44 43 43 42 42 41 39 36 34 33 31 29
17 19 21 22 23 24 26 27 28 28 29 30 29 32 34 33 36 39 41 42 43 45 46 47 48 49 50 51 51 50 49 48 47 46 44 43 41 39 36 34 32 31 30 29
11 13 15 16 17 19 21 22 23 24 24 24 25 28 29 29 32 37 41 45 48 50 52 53 54 55 56 56 56 56 55 53 51 50 49 46 42 39 36 33 31 30 30 30
11 12 13 14 15 16 18 19 21 23 21 20 20 22 21 23 26 30 35 40 45 49 53 56 58 59 60 60 60 58 57 55 54 52 49 46 43 40 38 36 34 33 33 34
11 12 13 14 15 16 17 18 19 21 21 20 18 18 19 22 26 28 31 34 38 43 47 51 54 57 58 59 58 57 56 55 54 52 49 45 43 41 41 38 37 36 36 37
9 9 11 12 14 15 17 17 18 20 22 22 19 18 20 22 25 27 30 33 36 39 43 46 50 54 56 57 57 56 55 54 52 51 48 45 42 42 43 40 39 39 39 39
10 10 11 14 15 17 18 18 19 21 22 25 24 20 23 25 26 28 31 34 37 39 41 44 47 49 50 51 51 51 50 48 47 45 44 42 40 40 41 40 39 39 39 39
12 13 14 15 17 19 20 20 21 22 23 25 27 24 26 27 29 31 33 35 37 39 40 42 43 44 44 43 43 43 43 42 41 41 40 39 37 36 37 38 37 38 38 36
16 17 18 18 19 21 22 22 24 25 26 26 28 27 28 30 30 32 34 36 36 37 37 38 38 37 35 34 34 35 34 34 34 35 35 35 35 34 33 33 34 34 34 33
22 22 22 23 23 25 25 26 27 28 28 29 28 28 28 30 31 32 33 35 35 35 35 34 32 29 27 26 27 28 29 30 31 32 33 33 31 30 30 31 31 30 30 30
25 25 25 25 26 29 29 28 30 31 30 31 29 30 29 30 31 31 32 32 33 33 32 30 26 23 22 22 21 21 24 26 27 28 29 29 28 28 29 29 28 28 28 28
25 27 27 27 28 31 30 28 31 33 32 32 31 29 30 30 30 29 29 30 30 30 28 26 23 21 20 19 19 19 20 22 23 24 24 25 26 26 27 27 27 27 28 28
23 25 27 27 27 31 30 28 31 33 32 32 30 29 29 29 29 28 28 28 27 26 25 24 22 21 20 19 19 19 20 21 23 23 23 24 24 25 26 26 27 27 27 28
23 25 27 27 27 29 27 27 29 31 30 30 30 29 30 29 28 28 27 26 25 24 23 22 22 21 19 18 18 18 19 20 21 22 22 23 23 24 24 25 25 25 26 26
23 25 26 27 27 26 23 26 30 31 28 27 29 29 30 29 29 28 27 25 24 22 21 20 20 19 18 17 17 17 18 18 18 19 20 21 22 22 22 22 22 22 23 23
24 25 26 27 28 27 24 26 28 30 26 26 29 29 30 30 29 28 26 24 22 21 19 18 18 17 16 15 15 15 15 15 16 16 17 18 19 20 20 19 18 18 18 18
25 26 27 28 29 27 27 29 28 28 27 27 28 28 29 30 30 28 26 23 21 19 18 17 16 15 14 13 13 13 12 12 12 13 13 14 15 15 16 16 15 15 15 15
27 28 28 29 29 28 29 30 29 28 28 28 28 28 29 28 28 27 25 22 20 19 17 15 14 14 13 12 11 11 10 10 10 10 10 11 11 11 12 13 13 13 13 13
28 30 31 30 29 29 30 31 30 29 28 28 29 29 29 29 28 27 25 22 20 19 17 16 14 13 12 11 10 9 9 8 8 8 8 9 9 10 11 11 11 12 12 12
29 32 33 31 30 31 32 32 31 31 30 29 29 29 29 29 29 28 26 23 21 20 18 17 16 14 12 11 10 9 9 8 7 7 8 9 9 9 10 10 11 11 12 12
34 37 35 32 31 32 32 32 33 32 31 30 29 28 28 28 27 27 26 25 23 21 20 19 17 16 14 13 12 11 10 9 9 9 9 9 10 10 10 11 11 12 12 12
37 38 38 36 35 34 33 33 34 33 31 30 29 28 27 27 27 27 27 27 26 24 23 21 20 19 17 16 15 13 12 11 11 10 11 11 11 11 12 12 13 13 13 13

GEFSCGP_500_meanwind_036.txt.gz
Wind_Speed
16 18 21 22 24 27 29 31 34 38 41 42 45 47 47 46 45 45 44 44 43 44 44 44 45 45 45 45 45 45 44 44 45 44 44 43 43 42 41 43 44 44 44 44
15 18 17 17 18 20 21 23 26 29 32 34 38 41 43 43 43 43 43 42 42 42 41 41 42 43 44 45 46 46 46 46 46 47 46 45 46 45 44 43 44 45 46 47
18 19 17 18 19 20 22 24 25 26 27 29 32 33 37 37 39 39 39 40 40 39 39 38 39 40 41 42 44 44 45 46 47 48 48 48 49 47 45 44 45 46 46 47
19 19 20 21 23 23 26 26 27 27 27 29 31 31 34 36 36 37 37 38 38 38 38 38 39 39 40 41 43 44 45 46 47 47 48 49 49 48 46 46 47 45 45 46
19 19 20 22 23 23 26 26 27 27 28 29 30 32 31 36 35 36 37 38 38 39 39 39 40 41 41 42 44 45 46 48 49 49 50 52 51 50 49 49 49 48 48 47
15 16 17 19 20 21 22 23 23 24 24 25 26 28 29 31 31 33 34 35 36 37 37 38 39 40 41 42 43 45 47 49 50 51 52 53 53 52 51 50 50 49 47 47
10 11 13 14 15 16 17 18 18 18 17 18 22 23 24 25 25 27 28 30 30 31 32 34 35 37 39 41 43 45 47 49 51 52 53 54 54 54 54 53 51 49 47 45
8 10 12 12 13 14 15 16 17 19 18 18 20 20 21 22 23 24 24 25 26 27 27 29 30 32 34 37 39 42 45 47 50 52 53 54 55 55 55 54 52 50 48 45
8 10 12 11 12 13 14 15 18 20 19 19 19 20 21 22 24 24 25 25 25 25 26 27 28 30 33 35 37 39 42 45 47 50 51 52 53 53 53 53 51 50 49 47
9 11 12 12 13 14 15 17 19 21 23 23 22 22 23 25 26 26 27 27 26 26 27 28 29 31 32 34 35 37 40 42 45 48 49 49 49 49 49 49 47 47 48 47
11 12 14 16 16 17 19 20 22 24 26 27 28 26 25 27 30 30 29 29 29 29 29 30 30 31 32 33 34 36 38 40 42 44 44 43 43 44 44 44 43 43 44 44
14 15 16 18 19 20 22 23 25 27 28 30 32 31 29 30 33 33 32 32 31 31 31 31 31 32 32 32 34 35 36 37 38 37 37 37 38 38 39 39 40 40 41 40
15 15 16 17 20 21 22 23 26 28 30 31 33 33 33 33 35 35 35 34 33 32 32 31 31 31 31 31 32 34 34 33 32 32 32 32 31 31 33 35 36 36 36 35
13 14 15 16 18 23 25 24 26 28 31 33 33 33 32 35 37 37 36 35 34 33 32 31 30 30 30 29 30 30 30 30 28 26 25 26 27 27 27 29 30 30 30 30
12 13 14 16 18 21 22 23 26 28 29 31 31 32 32 34 35 35 35 35 33 32 31 30 29 29 28 27 27 28 27 26 24 22 22 21 22 24 23 23 22 23 25 26
13 14 15 15 18 20 21 21 24 26 28 29 30 31 31 34 34 34 33 33 31 31 31 30 28 27 27 26 25 25 25 23 22 20 20 19 19 19 19 19 18 17 19 21
15 17 17 17 19 21 20 22 24 26 27 29 30 30 31 33 33 33 32 31 29 29 29 28 27 26 25 24 24 23 23 22 21 20 18 17 16 16 15 14 14 14 14 15
18 20 20 20 21 21 21 24 25 26 26 29 30 30 32 33 32 31 31 30 29 28 28 27 26 25 23 22 21 21 21 20 19 18 17 15 15 14 13 13 12 13 13 14
21 22 23 23 24 22 22 26 27 28 27 29 31 32 33 33 32 32 31 30 29 28 28 27 25 24 22 21 20 19 18 17 17 16 14 14 13 12 12 12 12 12 12 13
25 25 26 27 27 27 28 29 29 30 30 31 32 33 34 34 33 32 33 31 30 29 27 26 25 24 22 20 18 17 16 15 14 14 13 12 12 11 11 12 12 12 12 11
28 29 29 29 29 30 31 31 31 32 34 35 35 35 36 35 34 34 33 32 31 29 28 27 25 24 21 19 18 16 15 14 13 12 11 11 10 11 11 11 11 11 11 11
30 32 33 32 30 32 33 33 34 36 36 36 37 37 37 37 36 35 34 32 32 30 29 27 26 24 22 20 18 16 14 13 12 11 10 10 10 9 9 10 10 11 11 11
32 34 34 34 33 33 34 35 37 40 40 39 38 38 38 38 36 35 34 33 32 30 28 27 25 24 23 22 20 17 15 13 12 11 10 10 9 9 9 8 9 9 10 10
35 35 35 36 36 36 37 38 40 41 41 41 41 40 39 38 37 35 34 33 31 30 29 27 26 25 24 23 22 19 17 15 13 12 11 11 10 10 9 9 9 9 10 10
36 38 39 40 41 41 41 42 43 43 43 43 42 41 40 39 37 36 35 33 32 31 29 27 26 26 25 25 24 21 19 17 16 14 13 12 11 11 11 11 11 11 11 12
38 40 42 44 45 46 47 47 47 47 46 45 43 42 41 40 38 36 35 34 33 31 30 28 27 27 27 26 26 25 22 21 19 17 16 15 14 13 13 13 13 13 13 13

GEFSCGP_500_meanwind_042.txt.gz
Wind_Speed
7 9 8 10 18 22 24 24 23 22 25 35 39 36 29 32 40 44 44 43 43 44 44 43 43 44 45 46 46 45 45 45 45 44 43 43 43 43 43 43 44 44 44 45
3 6 12 15 16 16 17 20 23 24 25 32 34 32 27 28 35 39 39 39 40 41 41 41 40 41 42 43 44 43 43 43 43 44 44 44 44 44 44 45 45 45 46 47
6 11 12 10 12 13 13 13 17 21 25 27 27 26 23 25 32 36 38 37 36 37 37 38 38 39 40 41 41 42 42 42 43 43 43 44 44 45 45 46 46 47 48 48
10 15 15 13 13 15 14 17 23 24 25 25 24 26 23 22 31 36 39 38 36 35 36 37 37 38 39 40 40 41 41 42 43 44 44 45 45 46 46 47 48 49 49 49
9 14 15 13 14 19 19 22 24 24 24 24 21 24 21 19 25 32 36 37 36 36 35 36 37 37 38 39 40 41 41 42 43 44 46 46 47 47 48 49 50 51 51 51
11 14 15 14 16 18 19 20 20 18 18 19 17 20 18 19 25 30 36 38 39 38 36 35 35 36 36 37 38 39 40 41 42 43 45 46 47 48 49 50 51 51 52 52
9 9 11 14 12 14 16 17 15 11 11 16 17 19 17 23 28 31 35 39 40 39 37 36 35 34 34 35 35 36 37 38 39 41 43 45 46 48 48 49 50 52 52 52
8 7 9 13 13 14 14 14 13 15 15 15 17 20 22 29 31 32 33 35 37 38 38 37 36 36 35 35 35 36 36 37 38 40 42 43 45 47 48 49 50 51 52 53
8 9 10 12 12 12 13 12 13 17 17 16 14 15 22 28 31 33 34 36 38 39 39 38 38 38 37 37 37 37 37 38 39 40 41 43 44 46 47 48 50 51 52 54
9 10 8 11 13 13 14 15 16 18 20 20 17 16 22 30 34 38 40 40 40 40 41 41 40 39 39 39 39 39 39 40 40 41 41 42 43 45 46 47 48 50 51 51
10 11 9 11 13 14 16 17 19 21 23 24 25 21 21 29 35 38 40 41 41 41 40 40 40 40 40 40 40 40 40 41 41 41 41 42 43 44 44 45 46 46 46 46
12 12 10 10 11 14 15 18 21 23 23 24 27 23 21 28 33 37 39 40 40 41 41 41 40 40 40 40 40 40 40 40 40 40 41 41 42 42 41 41 40 40 40 39
10 11 10 8 11 14 17 19 22 25 26 26 28 26 24 31 35 38 40 40 40 41 41 41 40 39 39 40 40 40 39 39 39 39 39 39 39 38 37 37 36 34 32 31
10 10 11 11 12 15 18 20 22 26 29 29 29 30 29 32 35 37 39 38 38 39 40 41 41 40 38 38 38 38 37 37 37 37 37 36 35 34 33 33 31 30 29 28
11 11 12 13 14 16 18 19 21 24 26 29 29 29 31 33 35 36 36 37 38 39 40 40 40 40 38 37 36 36 36 35 35 35 34 33 31 30 30 29 27 25 23 23
15 15 15 15 18 20 21 22 22 23 25 27 29 30 32 34 35 36 37 38 39 39 39 39 39 38 37 36 35 35 34 33 33 32 31 30 28 27 27 26 23 21 20 19
19 20 20 19 21 22 23 23 25 26 26 29 32 34 35 36 37 37 38 40 40 40 39 39 38 38 37 36 35 34 33 31 30 29 28 27 25 25 24 22 21 19 17 17
20 22 24 24 24 24 22 27 29 29 30 32 35 36 37 38 38 39 40 42 42 41 40 39 39 38 37 36 34 34 32 31 29 28 26 24 23 23 21 19 18 16 15 14
23 25 27 27 27 27 27 32 32 31 34 36 37 38 39 40 41 41 42 43 44 43 43 41 40 39 38 36 35 33 32 30 28 26 24 23 22 21 19 18 17 15 13 12
30 28 28 29 29 30 33 34 34 34 38 40 41 43 44 45 46 45 45 45 45 45 44 43 41 39 38 36 34 33 32 30 27 25 23 22 21 20 18 17 16 14 13 12
34 35 35 34 34 35 39 37 37 39 42 43 44 46 47 48 49 49 48 47 46 46 45 43 41 39 37 37 35 33 32 30 28 26 23 21 20 19 18 17 15 14 14 13
35 35 35 36 36 38 41 41 42 43 46 47 49 50 51 51 52 51 51 49 47 46 45 43 41 39 37 36 35 33 31 29 28 25 23 21 20 19 18 17 16 15 14 13
37 37 36 36 39 41 42 44 45 47 49 51 53 54 55 55 55 54 53 50 48 46 45 43 41 39 37 36 35 34 31 29 28 26 24 22 20 19 18 17 15 14 14 12
36 37 37 39 42 43 45 46 48 51 53 55 57 58 59 59 58 56 54 52 49 47 45 43 40 39 38 37 35 34 32 29 28 27 25 23 21 19 18 17 16 14 13 12
35 36 38 41 44 46 49 51 53 55 57 58 60 61 61 61 60 59 56 54 52 49 46 44 42 41 40 38 35 33 31 29 28 28 27 25 23 21 20 19 17 16 14 13
38 40 42 45 48 51 53 55 57 59 60 62 63 63 63 63 63 62 60 58 55 52 49 45 43 43 42 38 35 33 32 30 29 29 29 27 25 23 21 20 19 18 16 15

GEFSCGP_500_meanwind_048.txt.gz
Wind_Speed
14 15 16 18 19 22 23 22 19 20 22 23 24 25 25 25 27 31 33 34 34 33 31 31 32 33 33 34 35 36 37 38 39 39 40 38 36 36 38 39 39 39 40 39
13 14 14 14 14 15 16 18 20 22 23 24 25 26 26 27 29 32 33 32 31 28 27 29 30 31 33 35 36 37 39 39 39 39 41 41 39 38 38 40 41 41 41 41
12 10 9 8 9 11 15 18 21 24 25 26 28 29 29 30 31 31 31 29 27 25 26 27 28 31 34 35 37 37 38 39 40 40 40 40 40 39 39 40 41 41 42 42
9 7 7 8 10 13 15 16 17 19 23 27 29 31 29 30 29 28 27 25 24 24 26 28 29 31 32 33 34 36 38 38 39 40 40 40 40 39 39 40 40 41 41 41
8 7 7 8 10 12 14 14 15 15 17 21 24 27 25 24 24 23 23 23 23 24 26 28 29 31 32 32 33 35 36 37 38 39 39 39 39 38 38 38 38 39 39 39
8 8 8 8 8 10 11 12 12 13 14 16 18 21 19 18 18 19 20 21 22 24 26 28 30 32 32 32 33 35 36 36 37 38 39 39 39 38 38 38 38 38 39 40
8 8 8 7 6 7 9 9 9 9 11 12 14 17 17 17 17 19 19 21 23 26 28 29 30 32 32 32 33 35 36 36 37 37 39 40 40 40 39 39 39 39 39 40
4 6 7 7 7 7 7 8 8 7 7 7 11 15 16 17 19 22 23 24 27 28 28 29 30 32 33 33 34 35 36 36 37 37 38 39 40 41 41 41 41 41 40 41
3 3 6 8 9 9 8 8 9 9 8 8 11 15 18 20 22 25 26 27 28 28 29 30 31 32 33 34 35 35 36 36 36 37 38 38 39 40 41 42 42 42 42 42
7 5 6 8 9 9 10 10 11 12 13 12 10 12 17 20 23 25 26 28 29 30 31 31 32 33 33 35 36 36 37 37 37 37 36 37 38 39 40 41 42 42 42 43
9 7 6 9 10 10 11 12 13 14 15 17 16 14 18 21 23 25 27 29 31 32 32 32 33 34 35 36 37 37 37 37 37 37 37 37 38 38 38 39 40 41 42 42
9 8 7 9 10 11 12 14 15 17 17 19 21 20 21 23 25 27 29 31 33 34 34 35 35 36 37 37 38 38 38 38 37 37 37 37 37 37 37 37 38 39 39 40
9 9 9 10 12 14 15 16 18 20 21 21 23 25 25 26 28 30 32 33 35 36 37 37 37 38 38 38 39 39 39 38 38 38 37 36 36 35 35 35 35 36 36 36
10 10 11 11 13 16 17 18 20 23 24 25 26 28 28 29 30 32 33 35 36 38 39 40 40 40 40 40 40 39 39 39 38 37 37 36 36 35 34 33 33 33 32 32
13 12 13 14 16 17 19 20 22 25 27 28 28 29 30 30 31 33 36 38 40 41 42 42 43 43 43 42 41 40 39 39 38 38 37 36 35 34 33 32 31 30 29 29
16 16 15 16 19 20 22 24 25 26 26 27 28 30 31 33 36 38 40 42 44 44 45 45 45 46 45 44 43 41 40 40 39 37 36 35 34 33 31 30 29 28 27 26
18 18 18 18 20 22 24 25 25 25 26 28 30 33 34 36 39 42 44 45 47 48 48 48 48 48 47 46 45 44 42 41 39 37 36 34 33 32 30 29 28 27 25 23
20 21 21 21 22 24 26 26 25 26 28 30 33 36 38 40 43 46 48 50 51 52 53 53 52 51 50 48 47 45 43 41 39 38 36 34 33 32 30 28 27 25 23 22
24 25 26 26 27 27 26 26 27 30 33 33 37 40 43 46 47 50 52 54 56 57 58 57 56 55 53 51 49 47 43 41 40 38 36 35 33 31 30 28 27 25 22 20
28 28 29 30 31 31 30 28 30 35 38 40 43 47 49 51 54 55 56 57 58 59 60 60 59 58 56 54 51 48 44 41 40 39 37 35 33 31 30 29 26 24 21 19
29 30 31 31 33 35 34 35 37 40 43 46 49 52 55 57 59 61 63 64 64 65 65 64 63 61 59 56 53 49 46 42 41 40 38 36 34 32 30 28 25 23 21 18
30 31 32 33 35 37 38 41 43 45 48 52 54 57 60 62 64 66 68 69 70 70 69 68 66 64 61 58 55 52 48 46 43 41 39 38 35 33 30 27 25 23 20 18
30 31 33 35 37 40 43 45 48 51 53 56 59 62 64 67 69 71 72 73 73 72 70 68 66 64 61 58 56 54 51 49 46 44 41 39 36 33 30 27 25 23 21 19
32 34 36 39 41 43 46 49 52 54 57 60 63 66 69 71 73 74 74 74 71 70 67 65 63 60 57 56 55 54 53 50 48 45 42 38 35 34 31 29 26 24 22 20
34 36 38 41 43 46 49 52 55 57 60 63 66 68 71 72 73 72 70 68 66 63 60 58 57 54 52 52 50 51 52 50 49 46 42 39 37 35 32 30 28 25 24 21
37 38 40 43 46 49 52 54 58 61 64 66 68 69 70 69 68 66 63 60 58 55 52 50 48 48 47 45 45 47 48 48 49 47 43 40 38 35 33 31 29 27 25 23

GEFSCGP_500_meanwind_054.txt.gz
Wind_Speed
17 19 21 23 25 28 30 32 33 34 34 35 35 35 34 34 35 34 33 31 30 29 29 29 29 30 32 32 32 33 33 33 34 35 35 35 35 35 36 36 36 36 37 39
12 15 16 19 21 24 27 29 30 31 31 32 32 33 33 33 33 32 31 30 30 30 30 30 30 30 31 32 32 33 33 34 34 34 35 35 35 35 36 36 37 37 37 38
9 10 12 14 18 21 24 25 26 28 28 30 31 31 30 31 31 31 31 30 30 31 31 31 31 31 31 32 33 33 33 34 34 35 35 35 35 35 35 36 36 36 37 38
8 10 11 13 15 17 20 22 24 25 26 27 29 30 29 30 31 32 32 32 31 31 32 31 30 30 30 32 32 33 34 34 34 34 34 34 34 35 35 35 35 35 36 36
10 11 13 14 15 16 18 19 21 22 23 24 27 30 29 29 31 32 32 31 30 30 30 29 28 28 30 31 32 33 33 33 33 33 34 34 34 35 35 36 36 36 36 36
10 11 12 12 13 14 16 17 18 19 20 21 24 26 26 27 28 29 29 29 28 27 26 26 26 28 29 30 31 32 32 32 32 32 32 32 33 33 34 35 35 36 36 37
9 10 11 11 12 13 13 14 15 16 17 18 20 21 21 22 24 24 24 24 24 23 24 25 27 28 28 29 31 32 32 31 30 30 31 31 32 33 33 34 34 35 35 36
6 7 9 10 11 12 12 13 14 14 14 15 17 18 19 20 21 21 22 22 23 24 25 26 26 27 28 29 30 31 31 32 31 31 32 32 33 33 34 34 34 35 35 35
4 5 8 10 11 12 12 12 13 14 14 14 15 17 18 20 20 21 21 22 23 24 25 25 27 28 29 29 30 31 31 32 32 33 33 33 34 34 34 34 35 35 36 36
4 5 7 9 11 11 12 12 14 15 17 16 16 17 18 18 20 21 22 23 24 25 26 28 28 29 30 31 32 33 33 34 35 35 36 36 36 36 35 35 36 36 35 36
6 7 8 10 10 11 12 13 14 16 18 20 19 20 20 21 22 23 25 26 27 28 29 31 32 33 34 35 36 36 37 37 37 38 38 38 38 38 37 36 36 36 35 35
8 9 10 11 11 12 13 15 17 19 20 22 24 25 24 25 26 27 29 30 31 32 34 35 36 37 38 39 40 41 41 41 41 41 41 41 40 40 39 38 37 36 36 35
9 10 11 12 14 15 17 18 20 22 24 25 27 30 29 30 30 31 33 34 35 36 38 39 41 42 44 45 45 46 46 46 45 45 44 44 43 42 41 40 38 37 36 35
11 12 14 15 17 19 19 21 23 25 27 28 29 32 33 34 34 35 36 37 39 40 42 44 46 47 49 49 50 51 50 50 49 48 47 46 45 44 43 41 39 37 36 35
13 14 16 17 19 20 21 22 24 26 29 31 32 33 34 35 36 38 40 42 43 45 47 49 50 52 53 54 55 55 55 54 53 52 50 48 47 45 44 42 40 38 36 35
17 17 18 19 21 23 23 24 26 28 30 32 33 34 35 37 39 41 44 46 48 50 52 53 55 56 57 58 59 59 59 58 58 56 54 51 49 47 45 43 41 38 36 35
19 20 21 21 23 25 26 27 28 30 31 33 35 37 38 40 42 44 47 50 52 55 57 59 60 61 62 63 64 64 63 62 61 59 57 55 52 49 46 44 42 39 36 34
21 22 24 24 25 28 29 29 31 33 35 36 38 39 41 44 46 49 52 56 58 61 62 64 65 66 67 68 69 69 68 67 66 63 60 58 55 51 48 44 42 39 36 34
23 25 27 28 30 32 33 35 37 39 40 41 42 44 47 50 52 54 59 62 64 66 68 70 71 72 73 73 73 72 72 72 69 66 63 60 56 52 49 45 42 40 37 34
25 26 29 31 33 35 38 39 40 42 44 45 48 51 54 56 59 60 62 65 67 69 72 73 74 75 75 75 74 73 72 70 68 65 62 59 56 53 49 46 43 41 38 35
25 28 30 32 35 38 40 41 43 45 48 50 53 56 58 61 64 66 68 70 72 73 74 74 74 74 73 71 70 68 66 64 61 59 57 55 53 51 49 47 44 42 39 36
28 30 32 34 36 38 40 43 44 47 50 53 56 59 62 65 68 70 72 73 74 74 74 73 71 69 66 64 62 60 57 55 53 51 50 49 49 49 49 48 46 42 39 38
30 32 34 35 37 40 42 44 47 50 54 57 60 63 66 69 72 73 74 74 72 70 68 66 64 60 57 54 53 52 49 48 46 44 43 43 44 45 47 48 47 44 40 38
32 33 35 37 40 42 45 47 51 54 58 62 65 68 71 73 74 74 71 68 65 62 59 57 54 51 49 48 47 45 44 43 42 40 40 39 39 41 43 46 48 46 41 39
33 35 37 40 42 44 48 51 55 59 63 66 68 70 71 71 70 67 63 60 56 54 51 49 47 46 44 43 42 42 41 41 39 38 37 37 38 39 40 43 45 47 42 39
35 38 40 43 46 49 52 56 60 63 66 69 71 70 69 67 63 60 56 53 49 46 45 44 43 42 42 41 40 39 39 38 37 36 35 34 34 34 36 40 44 46 42 39

GEFSCGP_500_meanwind_060.txt.gz
Wind_Speed
14 14 16 18 20 24 26 27 28 33 34 34 36 36 37 36 36 36 35 34 33 33 34 34 34 35 35 36 35 35 34 34 34 33 31 29 28 27 27 27 27 27 27 28
9 10 12 14 15 17 20 21 24 29 31 32 34 34 35 35 35 34 33 33 32 32 33 34 34 35 36 36 36 36 36 35 34 33 31 29 28 27 27 26 25 25 26 27
5 7 7 8 9 11 13 15 18 22 25 27 29 28 31 31 31 31 31 31 31 32 32 33 34 35 36 37 37 36 36 35 34 33 31 29 28 27 27 26 26 25 26 26
5 5 6 7 8 7 9 14 16 18 18 18 22 17 25 27 27 28 29 29 30 31 32 34 34 35 35 36 36 36 35 35 34 34 32 31 30 29 28 28 27 27 26 27
7 7 7 7 9 9 11 13 14 16 16 16 18 16 19 25 24 26 27 27 28 29 31 32 33 34 34 34 35 35 35 36 36 35 34 32 31 30 29 28 28 28 27 27
8 9 9 9 10 11 11 12 12 12 12 12 15 13 15 20 20 22 23 24 25 26 27 29 31 32 33 34 35 35 36 37 36 36 35 33 32 32 31 30 30 30 29 29
7 8 9 9 8 11 10 9 9 10 9 11 15 13 16 17 17 18 19 21 23 24 26 27 29 32 33 34 36 37 37 37 37 37 36 34 34 33 33 32 32 31 31 31
4 5 8 8 8 9 10 9 9 10 10 12 16 15 17 17 17 18 20 21 23 25 27 29 31 33 34 36 37 37 38 38 38 38 37 36 36 35 35 35 34 33 33 32
4 6 9 9 9 9 9 9 11 12 12 13 13 19 19 19 20 21 22 23 25 27 29 31 33 34 36 37 38 39 39 39 39 39 39 38 38 38 37 37 36 36 35 34
5 6 9 9 10 9 10 11 12 13 14 13 15 18 22 21 22 23 26 28 30 32 33 34 35 37 38 39 41 41 42 42 43 42 42 42 41 40 39 39 38 37 37 36
7 7 9 11 11 12 14 14 14 15 17 17 17 21 25 25 26 29 30 32 34 36 37 39 40 41 42 43 44 45 45 46 46 46 46 45 45 44 43 42 41 39 38 37
8 9 10 12 13 14 15 17 18 19 20 22 22 27 25 28 30 32 33 35 36 38 39 41 42 43 44 46 47 48 49 50 50 51 50 50 49 49 48 46 44 42 41 39
10 11 12 13 18 19 19 19 20 21 23 24 25 31 30 32 34 35 36 37 38 39 41 42 44 45 47 48 49 51 52 53 54 54 54 54 54 53 52 50 48 46 44 42
12 13 14 14 16 20 21 22 23 24 25 27 29 33 35 36 38 38 39 40 41 42 43 45 47 48 50 52 53 55 56 57 58 59 59 59 59 59 57 55 53 50 47 45
14 15 16 17 19 20 21 23 24 26 28 30 32 35 38 39 40 41 42 43 44 45 47 49 51 53 55 57 59 61 62 63 64 65 65 65 64 63 61 59 57 54 51 49
15 16 17 18 20 22 23 24 26 28 30 32 35 38 38 40 41 42 44 46 47 49 52 54 57 59 61 62 64 66 68 69 70 70 70 70 69 68 66 64 62 59 55 52
17 18 19 20 22 25 26 27 29 31 32 35 37 39 40 42 43 45 48 50 53 55 58 60 63 64 66 68 70 72 73 74 74 74 74 73 73 71 70 68 65 62 59 55
18 20 21 23 25 26 28 29 31 33 34 36 38 40 42 45 47 50 53 56 58 61 63 65 67 69 71 72 73 73 73 73 73 73 72 72 72 71 69 67 65 62 60 58
20 22 23 24 26 30 29 31 33 35 37 38 41 44 46 49 52 55 59 61 63 65 67 69 71 71 70 70 69 68 66 65 64 64 64 63 63 62 61 61 61 60 59 57
22 23 25 26 27 30 33 34 36 39 41 43 46 49 52 54 57 59 63 65 67 69 70 70 69 67 64 61 59 57 55 53 52 51 51 50 50 50 51 51 52 53 54 53
24 24 25 26 29 31 33 35 38 41 45 48 50 53 56 59 62 65 67 68 69 69 67 64 61 57 53 51 49 48 47 45 44 43 42 41 40 40 41 41 43 44 46 48
25 26 27 28 31 34 36 38 41 44 47 50 53 57 60 63 66 67 68 68 66 63 59 55 52 49 46 45 44 42 41 40 39 38 37 36 35 35 35 34 35 36 39 42
26 27 29 30 33 36 39 42 44 47 50 53 57 60 64 66 68 68 66 62 58 54 51 48 46 43 42 42 42 41 39 39 38 37 35 33 32 32 32 32 31 32 33 36
28 30 31 33 36 39 42 44 47 51 54 58 61 64 67 68 66 63 59 55 52 49 46 44 43 42 41 41 41 40 39 39 37 35 33 32 31 30 30 29 29 29 30 32
31 33 35 37 39 42 44 48 51 54 58 61 64 66 67 65 61 58 54 50 47 45 43 43 42 41 41 41 39 39 39 38 36 34 33 32 31 30 29 28 29 30 31 31
34 36 38 41 43 46 48 51 55 58 61 64 66 66 64 61 57 53 49 46 44 43 42 42 42 42 42 41 39 38 38 37 35 34 33 32 31 29 29 28 29 29 29 29

GEFSCGP_500_meanwind_066.txt.gz
Wind_Speed
7 7 5 8 13 15 16 16 13 13 21 28 27 23 23 28 33 34 34 35 37 36 38 38 39 38 37 38 37 36 38 38 38 38 36 34 33 32 31 30 29 28 27 27
5 6 10 12 14 12 12 12 13 15 21 28 29 25 24 29 30 31 32 34 35 37 38 37 37 38 37 37 36 36 37 37 37 38 36 36 33 32 31 30 29 28 27 27
3 9 11 9 6 4 5 9 13 17 20 21 19 19 20 25 26 26 25 27 31 34 36 35 36 36 36 36 36 35 36 37 38 37 37 36 34 32 31 30 29 28 28 27
5 7 9 5 5 6 10 14 16 17 19 17 15 18 19 24 28 28 24 25 28 30 29 30 33 34 34 34 36 36 37 38 38 37 37 35 34 33 32 31 29 28 28 28
5 6 8 9 8 10 12 15 14 13 14 14 14 17 21 26 27 27 24 26 28 25 26 29 31 32 32 35 35 36 37 38 38 38 38 37 35 34 33 32 30 30 29 29
4 8 8 8 9 10 9 9 8 11 14 18 20 20 21 24 25 27 28 30 31 30 28 29 31 32 33 34 35 35 37 38 39 39 40 38 37 35 35 34 33 32 32 31
2 5 7 9 8 11 12 10 11 17 19 20 16 12 18 21 23 26 29 31 31 31 30 31 31 32 33 34 35 37 39 40 41 41 41 40 39 38 37 36 36 35 34 34
6 7 5 9 12 11 10 9 11 16 18 20 22 16 19 23 24 25 26 28 31 33 34 34 35 36 37 38 39 41 42 43 44 44 44 44 44 43 42 41 40 38 37 37
5 7 8 12 12 10 10 9 11 14 14 13 16 24 27 24 24 24 25 29 33 36 37 38 39 40 42 43 44 45 46 47 48 48 49 49 48 48 47 46 44 43 42 41
7 8 7 10 10 11 12 13 13 15 16 15 15 27 31 33 29 27 30 34 36 38 40 41 42 43 44 46 48 48 50 51 52 52 53 53 53 53 53 52 51 49 47 45
8 8 6 8 11 10 12 13 14 18 19 20 21 27 32 33 33 33 37 39 41 43 45 47 48 47 48 49 51 52 53 54 55 56 56 57 57 57 57 56 55 53 52 50
9 9 8 8 11 13 13 15 17 19 20 21 23 29 32 34 35 37 42 44 46 47 49 51 52 52 52 53 54 55 56 57 58 59 59 60 60 61 60 60 59 58 57 55
11 11 9 10 13 16 18 19 21 23 25 25 25 31 34 36 39 41 44 46 48 51 52 53 54 55 56 56 57 58 59 60 61 62 63 63 64 65 65 65 64 63 62 60
11 11 11 11 12 14 17 19 21 24 27 28 30 34 38 40 42 45 48 50 52 54 55 56 57 58 59 60 61 61 62 63 65 65 66 67 68 69 70 70 69 68 67 66
12 13 13 13 13 13 16 19 22 25 28 31 34 38 41 43 45 48 51 53 55 57 58 59 60 62 63 63 64 65 66 67 68 69 70 71 72 72 71 71 71 71 70 69
14 14 14 14 14 14 18 21 23 28 32 35 37 40 43 45 48 50 53 56 59 60 61 62 64 65 66 67 68 68 68 69 68 68 68 68 67 67 67 68 68 69 69 69
16 17 17 16 15 16 20 24 27 31 34 38 40 43 46 48 50 52 55 59 61 62 64 65 66 67 68 68 68 68 67 65 62 60 58 57 56 56 57 58 60 61 63 65
16 17 18 19 19 19 23 25 29 33 36 39 42 45 47 50 52 54 58 62 63 65 66 67 67 67 66 65 62 60 57 54 51 49 47 46 46 46 47 47 48 50 52 55
19 19 21 21 21 25 28 29 32 36 40 42 44 48 50 53 56 57 60 63 64 65 66 66 65 63 60 57 55 52 49 46 44 41 40 39 39 39 39 39 39 39 41 43
23 23 24 25 27 29 31 34 37 41 44 47 50 53 55 58 60 61 62 63 64 64 64 63 60 57 54 51 49 47 44 42 40 40 39 39 39 38 36 35 35 35 34 35
21 23 25 27 29 34 35 38 41 43 46 48 51 54 57 59 62 63 63 63 63 62 60 57 54 52 50 48 46 44 42 40 40 40 40 38 37 37 36 34 32 32 31 31
23 25 28 29 31 35 38 41 43 46 48 51 54 57 59 62 63 63 63 62 61 58 55 53 51 49 48 46 44 42 41 40 40 40 39 38 37 36 34 33 31 30 29 28
25 27 30 32 34 37 41 44 47 49 52 54 57 59 62 64 64 63 62 60 57 54 52 50 49 49 47 45 44 43 42 41 40 40 39 38 36 34 33 32 30 30 29 27
29 29 32 34 37 40 43 46 49 51 54 57 59 61 63 64 63 62 60 57 54 51 50 50 50 48 46 44 43 43 42 41 41 40 39 38 36 34 32 31 30 29 28 27
29 32 34 37 40 42 44 48 51 53 56 58 60 62 64 64 62 60 58 54 51 50 50 50 50 48 45 43 42 41 41 40 40 39 38 36 34 33 32 30 29 28 27 26
31 34 37 39 42 44 47 50 53 55 57 59 62 63 63 62 60 58 55 52 51 50 50 50 48 46 44 42 41 40 40 40 39 37 36 34 32 31 30 28 27 26 25 24

GEFSCGP_500_meanwind_072.txt.gz
Wind_Speed
12 12 13 13 13 12 11 12 12 13 13 15 17 18 20 23 27 31 32 34 37 39 40 40 39 39 38 34 30 27 27 28 28 29 29 29 30 30 30 29 29 29 28 27
12 12 11 10 9 8 10 13 16 17 18 19 21 22 24 27 30 32 34 36 37 39 40 38 36 36 37 33 29 30 29 29 29 29 29 29 30 30 29 28 28 28 28 28
11 9 7 7 8 10 11 14 17 19 20 22 23 24 28 31 32 33 34 34 35 35 34 32 33 34 33 32 29 28 29 28 29 29 29 30 30 29 28 27 28 28 28 29
8 7 6 7 8 9 11 13 16 19 21 23 24 26 27 30 32 33 33 32 32 30 31 31 31 32 32 31 31 29 29 30 30 31 31 30 30 31 30 30 30 30 30 30
7 7 6 5 5 7 9 12 14 15 17 20 21 24 25 28 30 31 33 32 31 30 32 32 31 31 31 30 30 30 30 31 32 32 32 33 33 33 33 33 33 32 32 32
5 6 5 4 4 7 9 10 11 13 14 16 18 20 22 22 24 27 28 29 29 27 29 30 30 30 30 30 32 33 33 34 34 35 35 36 36 36 37 37 37 36 36 35
3 5 5 5 6 8 10 11 11 10 12 14 16 18 19 20 22 21 21 21 24 26 27 29 31 32 33 34 35 37 38 39 39 40 41 42 42 42 42 42 42 41 40 40
5 5 5 6 7 8 8 10 11 13 13 15 17 19 20 22 22 23 23 24 24 23 26 30 33 34 36 39 41 42 44 45 45 46 47 48 47 47 47 47 47 46 46 45
6 6 6 7 9 10 10 12 14 16 17 18 19 20 21 24 25 26 27 28 28 28 31 34 36 38 40 43 45 46 48 49 50 51 51 52 52 52 53 52 52 51 51 50
8 8 7 8 9 11 13 15 15 17 19 19 21 22 25 27 28 31 33 35 36 36 39 40 41 43 46 47 49 50 52 52 53 54 55 55 55 56 56 56 56 56 55 54
9 9 9 10 10 12 13 15 16 17 19 22 24 26 27 29 32 35 38 40 40 43 45 47 48 50 52 53 54 55 56 56 57 57 58 58 58 59 59 59 59 59 59 59
10 10 10 11 11 13 15 17 18 18 21 23 26 29 31 33 36 39 41 43 45 47 49 51 53 55 56 58 59 60 61 61 61 61 61 61 61 62 62 62 62 62 62 62
10 10 10 11 13 16 17 18 19 20 22 25 28 32 34 37 39 42 44 47 49 51 52 54 56 58 60 61 62 63 64 64 64 64 64 64 64 64 64 65 65 65 65 65
9 11 12 13 15 17 18 18 19 20 23 27 30 33 36 39 42 44 47 50 52 53 55 58 59 61 63 63 64 64 64 65 64 64 63 63 62 62 63 63 64 64 65 66
10 11 13 14 16 18 18 18 19 22 25 28 32 35 38 41 43 46 49 52 54 56 58 60 61 62 63 64 64 64 64 63 62 61 60 59 58 58 57 57 57 57 58 59
11 11 12 14 16 17 17 17 20 24 26 29 32 35 39 42 45 48 51 53 55 57 59 61 62 63 63 64 63 63 61 60 58 57 55 54 53 52 50 49 48 48 47 48
10 11 12 14 16 17 16 19 22 25 28 31 34 38 41 44 46 49 52 55 57 59 60 62 62 63 63 62 61 60 58 56 54 53 51 49 48 46 44 42 41 40 39 39
11 13 15 17 18 18 20 23 27 30 32 34 38 41 45 47 49 51 55 57 58 59 60 61 61 61 60 59 58 57 55 53 51 50 48 46 44 42 39 37 37 36 36 36
15 17 19 21 23 24 25 27 31 34 36 38 41 44 47 49 50 52 55 56 58 58 59 60 60 59 58 56 55 53 51 49 48 47 46 44 42 40 38 37 35 35 34 34
19 20 21 23 25 27 28 30 33 36 39 42 44 47 50 52 55 55 57 58 58 59 60 60 59 57 55 54 52 51 50 49 47 46 43 41 40 39 37 36 36 35 34 33
19 21 22 25 27 29 31 33 35 38 41 44 47 51 53 55 58 60 60 59 59 59 59 58 57 55 53 52 51 50 49 47 45 43 41 40 38 37 36 35 35 34 33 32
20 22 24 27 29 31 33 35 38 41 44 48 51 53 55 57 59 60 59 59 59 59 58 57 55 54 53 52 51 49 47 45 43 41 40 38 37 36 35 34 34 33 32 31
21 23 25 27 30 32 35 38 41 44 47 50 52 54 56 58 60 60 59 58 58 58 57 55 54 53 52 51 50 49 47 45 43 41 39 37 36 35 34 33 32 31 31 30
21 23 25 27 30 33 37 39 42 44 48 51 53 55 57 59 60 59 58 58 58 56 55 54 53 51 50 49 49 47 45 43 41 39 36 35 34 32 31 31 30 29 28 28
23 24 26 29 31 34 36 40 42 45 48 51 53 55 57 59 59 59 58 57 56 54 53 52 51 51 50 48 47 45 43 41 38 35 33 30 29 28 27 27 26 26 25 25
23 25 27 30 32 36 38 41 44 47 50 53 55 56 57 59 59 58 56 55 54 52 52 52 51 50 48 47 45 43 41 38 34 31 28 25 24 23 22 22 22 22 22 21